Overview Statistics Trail Chart Weather Telemetry Raw packets
 

This is the latest recevied weather packets stored in our database for station/object WX0ABE-13. If no packets are shown the sender has not sent any weather packets the latest 10 day(s).

<< 69 70 71 72 73 74 75 >>
Time Temp. Humidity Pressure Rain* Wind** Luminosity Snow
1787854156 30.56° C 35% 1021.8 hPa 0 mm - 667 W/m² -
1787853857 30.56° C 35% 1022 hPa 0 mm - 665 W/m² -
1787853555 30.56° C 36% 1022 hPa 0 mm - 661 W/m² -
1787853250 30° C 35% 1021.9 hPa 0 mm - 657 W/m² -
1787852950 30° C 35% 1022.2 hPa 0 mm - 653 W/m² -
1787852644 30° C 36% 1022.2 hPa 0 mm - 649 W/m² -
1787852343 29.44° C 36% 1022.2 hPa 0 mm - 643 W/m² -
1787852043 29.44° C 36% 1022.1 hPa 0 mm - 638 W/m² -
1787851743 29.44° C 37% 1022.1 hPa 0 mm - 631 W/m² -
1787851437 28.89° C 38% 1022.1 hPa 0 mm - 625 W/m² -
1787851133 28.89° C 38% 1022.2 hPa 0 mm - 617 W/m² -
1787850828 28.89° C 39% 1022.1 hPa 0 mm - 612 W/m² -
1787850524 28.33° C 41% 1022.3 hPa 0 mm - 604 W/m² -
1787850219 28.33° C 42% 1022.3 hPa 0 mm - 595 W/m² -
1787849919 28.33° C 43% 1022.2 hPa 0 mm - 586 W/m² -
1787849613 27.78° C 43% 1022.4 hPa 0 mm - 576 W/m² -
1787849312 27.78° C 44% 1022.3 hPa 0 mm - 379 W/m² -
1787849007 27.78° C 45% 1022.2 hPa 0 mm - 192 W/m² -
1787848702 27.22° C 44% 1022.4 hPa 0 mm - 79 W/m² -
1787848397 27.22° C 45% 1022.6 hPa 0 mm - 97 W/m² -
1787848097 27.22° C 44% 1022.6 hPa 0 mm - 328 W/m² -
1787847796 27.22° C 44% 1022.7 hPa 0 mm - 455 W/m² -
1787847492 26.67° C 45% 1022.6 hPa 0 mm - 503 W/m² -
1787847188 26.11° C 47% 1022.6 hPa 0 mm - 490 W/m² -
1787846884 26.11° C 49% 1022.7 hPa 0 mm - 478 W/m² -

* Rain latest hour (hover to see other rain measurements)
** Current wind speed in m/s (hover to see current wind gust speed)